Location: Bayou Vista
(29.6905°N, 91.2709°W)
Time: 05:29:15
(UTC+00:00)

Transit 4A - Pass Details

Date: 12 August 2024
Orbit: 867 x 976 km, 66.8° (Epoch: 09 September)

Event Time Altitude Azimuth Distance (km) Brightness Sun altitude
Rises 03:56:20 0° 307° (NW) 3,601 11.9 -35.0°
Reaches altitude 10° 04:00:53 10° 276° (W) 2,677 10.7 -35.7°
Maximum altitude 04:02:50 12° 257° (WSW) 2,573 10.4 -35.9°
Enters shadow 04:04:20 11° 243° (WSW) 2,645 10.3 -36.1°
